Location: Brno
(49.2000°N, 16.6330°E)
Time: 09:26:38
(UTC+02:00)

Vanguard 3 - Pass Details

Date: 26 July 2021
Orbit: 510 x 3260 km, 33.3° (Epoch: 18 September)

Event Time Altitude Azimuth Distance (km) Brightness Sun altitude
Rises 02:40:49 0° 275° (W) 7,115 11.8 -17.8°
Reaches altitude 10° 02:47:47 10° 262° (W) 5,811 11.2 -17.3°
Maximum altitude 02:58:03 19° 225° (SW) 4,358 10.2 -16.5°
Enters shadow 02:59:05 19° 220° (SW) 4,285 10.2 -16.5°
